Terminal Aerodrome Forecast
Issued by NWS

Home | Current Version | Previous Version | Graphics & Text | Print | Product List | Glossary On
Versions: 1 2 3 4 5 6 7 8 9 10 11 12 13 14 15 16 17 18 19
000
FTUS43 KABR 232100 AAA
TAFPIR
TAF AMD
KPIR 232117Z 2321/2418 16006KT P6SM SCT100 SCT250
     FM232200 30016G25KT P6SM SCT100 SCT250
     FM240200 29011KT P6SM SKC=

USA.gov is the U.S. government's official web portal to all federal, state and local government web resources and services.